Weather History for KLAA - April, 2014

Change the Weather History Date:

Sunday, April 27, 2014

  Actual Average Record
Temperature  
Mean Temperature 46 °F 56 °F  
Max Temperature 55 °F 73 °F 95 °F (1927)
Min Temperature 37 °F 39 °F 26 °F (1991)
Degree Days  
Heating Degree Days 19 10  
Month to date heating degree days 304 364  
Since 1 July heating degree days 5273 5373  
Cooling Degree Days 0 0  
Month to date cooling degree days 15 0  
Year to date cooling degree days 15 0  
Moisture  
Dew Point 34 °F    
Average Humidity 53    
Maximum Humidity 80    
Minimum Humidity 26    
Precipitation  
Precipitation 0.13 in 0.05 in 0.95 in (1957)
Month to date precipitation 0.61 1.16  
Year to date precipitation 1.14 2.67  
Sea Level Pressure  
Sea Level Pressure 29.24 in    
Wind  
Wind Speed 20 mph (WNW)    
Max Wind Speed 52 mph    
Max Gust Speed 65 mph    
Visibility 7 miles    
Events Rain , Thunderstorm    
T = Trace of Precipitation, MM = Missing Value Source: NWS Daily Summary

Daily Weather History Graph

Daily Weather History Graph

Search for Another Location

Airport or City:

Trip Planner

Search our weather history database for the weather conditions in past years. The results will help you decide how hot, cold, wet, or windy it might be!

Date:

Astronomy

Apr. 27, 2014 Rise Set
Actual Time 5:59 AM MDT 7:38 PM MDT
Civil Twilight 5:31 AM MDT 8:06 PM MDT
Nautical Twilight 4:57 AM MDT 8:40 PM MDT
Astronomical Twilight 4:21 AM MDT 9:16 PM MDT
Moon 4:59 AM MDT (4/27) 6:15 PM MDT (4/27)
Length of Visible Light 14h 35m
Length of Day
13h 38m
Waning Crescent, 3% of the Moon is Illuminated
Apr 27
Waning Crescent
Apr 29
New
May 6
First Quarter
May 14
Full
May 21
Last Quarter

Hourly Weather History & Observations

Time (MDT) Temp. Windchill Dew Point Humidity Pressure Visibility Wind Dir Wind Speed Gust Speed Precip Events Conditions
12:53 AM 54.0 °F - 27.0 °F 35% 29.22 in 10.0 mi SSW 12.7 mph - N/A   Clear
1:53 AM 53.1 °F - 28.9 °F 40% 29.16 in 10.0 mi SSW 10.4 mph - N/A   Partly Cloudy
2:53 AM 51.1 °F - 27.0 °F 39% 29.13 in 10.0 mi West 4.6 mph - N/A   Partly Cloudy
3:53 AM 46.9 °F - 25.0 °F 42% 29.13 in 10.0 mi SW 6.9 mph - N/A   Clear
4:53 AM 43.0 °F 36.8 °F 19.9 °F 40% 29.09 in 10.0 mi SSW 11.5 mph - N/A   Clear
5:53 AM 37.0 °F 31.6 °F 19.0 °F 48% 29.06 in 10.0 mi SSW 6.9 mph - N/A   Clear
6:53 AM 39.9 °F - 19.9 °F 45% 29.05 in 10.0 mi Calm Calm - N/A   Clear
7:53 AM 46.9 °F - 19.9 °F 34% 29.03 in 10.0 mi WSW 8.1 mph - N/A   Clear
8:53 AM 54.0 °F - 19.9 °F 26% 29.02 in 10.0 mi WSW 20.7 mph - N/A   Clear
9:08 AM 51.1 °F - 28.0 °F 41% 29.13 in 9.0 mi WSW 24.2 mph 29.9 mph N/A Thunderstorm Partly Cloudy
9:24 AM 48.9 °F - 39.9 °F 71% 29.13 in 9.0 mi WSW 25.3 mph 31.1 mph N/A Thunderstorm Thunderstorm
9:40 AM 46.9 °F - 42.1 °F 83% 29.13 in 7.0 mi SW 12.7 mph - 0.00 in Rain , Thunderstorm Light Rain
9:57 AM 51.1 °F - 39.0 °F 63% 29.12 in 0.8 mi NW 47.2 mph 62.1 mph N/A Thunderstorm Unknown
10:00 AM 51.1 °F - 37.0 °F 59% 29.13 in 0.5 mi NW 48.3 mph 62.1 mph N/A Thunderstorm Unknown
10:08 AM 48.9 °F - 37.9 °F 66% 29.14 in 0.2 mi NW 43.7 mph 59.8 mph 0.00 in Rain , Thunderstorm Light Thunderstorms and Rain
10:19 AM 52.0 °F - 39.0 °F 61% 29.15 in 1.0 mi NW 51.8 mph 65.6 mph 0.00 in Rain , Thunderstorm Light Rain
10:25 AM 51.1 °F - 39.9 °F 66% 29.17 in 1.5 mi NW 44.9 mph 63.3 mph 0.00 in Thunderstorm Haze
10:31 AM 51.1 °F - 39.0 °F 63% 29.18 in 1.2 mi NW 44.9 mph 57.5 mph 0.00 in   Haze
10:44 AM 50.0 °F - 37.9 °F 63% 29.20 in 2.0 mi NW 38.0 mph 55.2 mph 0.00 in   Haze
10:53 AM 51.1 °F - 39.0 °F 63% 29.12 in 2.5 mi NW 40.3 mph 58.7 mph 0.00 in   Haze
11:15 AM 48.9 °F - 42.1 °F 77% 29.25 in 4.0 mi NW 36.8 mph 49.5 mph 0.00 in Rain Light Rain
11:53 AM 48.0 °F - 43.0 °F 83% 29.20 in 5.0 mi WNW 28.8 mph 35.7 mph 0.04 in Rain Light Rain
12:53 PM 48.0 °F - 41.0 °F 77% 29.23 in 8.0 mi WNW 31.1 mph 42.6 mph 0.03 in Rain Light Rain
2:53 PM 46.9 °F - 39.0 °F 74% 29.31 in 7.0 mi NW 32.2 mph 47.2 mph 0.00 in Rain Light Rain
3:53 PM 48.0 °F - 39.9 °F 74% 29.34 in 10.0 mi WNW 34.5 mph 44.9 mph 0.00 in   Overcast
4:53 PM 50.0 °F - 37.0 °F 61% 29.37 in 9.0 mi NNW 39.1 mph 56.4 mph 0.01 in   Overcast
5:53 PM 48.0 °F - 36.0 °F 63% 29.44 in 10.0 mi NW 31.1 mph 42.6 mph N/A   Overcast
6:53 PM 48.0 °F - 36.0 °F 63% 29.44 in 10.0 mi NNW 26.5 mph 36.8 mph N/A   Overcast
7:53 PM 48.0 °F - 36.0 °F 63% 29.45 in 10.0 mi NNW 20.7 mph - N/A   Overcast
8:18 PM 48.0 °F - 36.0 °F 63% 29.51 in 10.0 mi NNW 19.6 mph 32.2 mph N/A   Overcast
8:53 PM 48.0 °F - 37.0 °F 66% 29.47 in 10.0 mi North 17.3 mph - N/A   Overcast
9:53 PM 46.9 °F - 37.0 °F 68% 29.51 in 10.0 mi North 16.1 mph - N/A   Overcast
10:53 PM 46.0 °F 38.3 °F 36.0 °F 68% 29.54 in 10.0 mi North 20.7 mph - N/A   Overcast
11:53 PM 44.1 °F 37.1 °F 35.1 °F 71% 29.54 in 10.0 mi North 15.0 mph - N/A   Clear